Regional Weather Roundup
Issued by NWS Newport/Morehead, NC

Current Version | Previous Version | Graphics & Text | Print | Product List | Glossary Off
Versions: 1 2 3 4 5 6 7 8 9 10 11 12 13 14 15 16 17 18 19 20 21 22 23 24 25 26 27 28 29 30 31 32 33 34 35 36 37 38 39 40 41 42 43 44 45 46 47 48 49 50

000
ASUS42 KMHX 291324
RWRMHX
WEATHER ROUNDUP FOR EASTERN NORTH CAROLINA
NATIONAL WEATHER SERVICE NEWPORT/MOREHEAD CITY NC
900 AM EDT SUN MAR 29 2015

NOTE: "FAIR" INDICATES FEW OR NO CLOUDS BELOW 12,000 FEET
WITH NO SIGNIFICANT WEATHER AND/OR OBSTRUCTIONS TO VISIBILITY

NCZ015>017-031-032-045>047-102-103-291400-
NORTH COAST

CITY           SKY/WX    TMP DP  RH WIND       PRES   REMARKS
EDENTON        SUNNY     32  12  42 N16       30.41R
ELIZABETH CITY SUNNY     32  13  45 NW16      30.39R
KITTY HAWK     SUNNY     33  12  42 NW9G17    30.36R
MANTEO         SUNNY     33  10  37 N14G21    30.38R

$$

NCZ045>047-081-094-103-104-291400-
CENTRAL COAST

CITY           SKY/WX    TMP DP  RH WIND       PRES   REMARKS
FRISCO         SUNNY     34  13  41 NW14G22   30.37R
SWANQUARTER      N/A     34 N/A N/A N10G17    30.36S

$$

NCZ095-097-098-100-101-291400-
SOUTHERN COAST

CITY           SKY/WX    TMP DP  RH WIND       PRES   REMARKS
BEAUFORT       SUNNY     35  15  44 N14       30.41R
CEDAR ISLAND     N/A     36 N/A N/A NW16G26   30.44R
JACKSONVILLE   SUNNY     34  16  47 N9        30.41R
PINEY ISLAND   SUNNY    N/A N/A N/A N18       30.40R
WILMINGTON     SUNNY     36  15  42 N9        30.42R


$$

NCZ011>013-027>030-043-044-078>080-089-090>093-098-291400-
COASTAL PLAIN

CITY           SKY/WX    TMP DP  RH WIND       PRES   REMARKS
AHOSKIE        SUNNY     30  10  44 N6        30.43R
CLINTON        SUNNY     35  14  43 N7        30.44R
ELIZABETHTOWN  SUNNY     35  15  43 N3        30.45R
GOLDSBORO      SUNNY     33  18  54 N8        30.41R
GREENVILLE     SUNNY     32  18  55 N8        30.43R
HAVELOCK       SUNNY     36  14  40 N15       30.42R
KENANSVILLE    SUNNY     34  13  42 N8        30.44R
KINSTON        SUNNY     34  16  47 N10G16    30.43R
NEW BERN       SUNNY     35  13  40 N14G23    30.42R
RICHLANDS      SUNNY     36  14  41 N9G16     30.43R
ROCKY MOUNT      N/A     34  14  43 N10       30.43R
WASHINGTON     SUNNY     32  17  54 N9        30.43R
WHITEVILLE     SUNNY     35  12  38 N7        30.43R

$$

AMZ130-135-150-152-154-156-158-170-250-252-270-ANZ085-086-088-633-658-670-291400-
MARINE OBSERVATIONS

STATION/POSITION TIME  TEMP    WIND        PRES    WAVE   SWELL
                       AIR SEA DIR/SP/G            HT/PER HT/PER
                 (UTC) (F)     (DEG/KT/KT) (MB)    (FT/S) (FT/S)
CHESAPEAKE LIGHT 1300   31     330/ 21/ 23 1028.6
64 E VA BEACH    1250   34 51  340/ 19/ 27 1026.0    6/ 6   2/ 9
DUCK             1300   31 41  350/ 19/ 21 1027.5
2 E DUCK         1211      42                N/A     4/ 6
10 NE DUCK       NOT AVBL
OREGON INLET     1300   33 44  310/ 17/ 25 1028.1
HATTERAS CG      1300   35 48  340/ 19/ 23 1028.9
CAPE LOOKOUT     1300   35     350/ 15/ 18 1029.0
BEAUFORT LAB     1300   35 53  360/ 13/ 17 1028.7
27 SE WRIGHTSVLE 1300   36 64   40/ 16/ 19 1030.0
5 SE WRIGHTSVLE  1300   37 55   20/ 16/ 17 1029.9
225 S CAPE HAT   1250   56 68  340/ 25/ 31 1024.1   10/ 8
41 SE CHARLESTON 1250   47 67   20/ 19/ 25 1028.4    6/ 6   2/ 9

$$



USA.gov is the U.S. government's official web portal to all federal, state and local government web resources and services.